Regional Weather Roundup
Issued by NWS

Home | Current Version | Previous Version | Text Only | Print | Product List | Glossary On
Versions: 1 2 3 4 5 6 7 8 9 10 11 12 13 14 15 16 17 18 19 20 21 22 23 24 25 26 27 28 29 30 31 32 33 34 35 36 37 38 39 40 41 42 43 44 45 46 47 48 49 50
000
ASUS46 KPQR 011710
RWROR

OREGON REGIONAL WEATHER ROUNDUP
NATIONAL WEATHER SERVICE PORTLAND OR
900 AM PST SUN FEB 01 2015

NOTE: "FAIR" INDICATES FEW OR NO CLOUDS BELOW 12,000 FEET WITH
NO SIGNIFICANT WEATHER AND/OR OBSTRUCTIONS TO VISIBILITY.

ORZ001>013-011800-
NORTHWEST OREGON


CITY           SKY/WX    TMP DP  RH WIND       PRES   REMARKS
ASTORIA        RAIN      43  41  93 SE9       30.05F FOG
NEWPORT        RAIN      45  45 100 E7        30.12R
PORTLAND       LGT RAIN  40  38  93 SE15      30.12F WCI  32
VANCOUVER WA   LGT RAIN  40  36  86 SE6       30.13R
SCAPPOOSE      LGT RAIN  40  38  93 VRB6      30.12S
HILLSBORO      CLOUDY    40  39  97 NW3       30.13R
AURORA         CLOUDY    39  38  96 CALM      30.15R
MCMINNVILLE    LGT RAIN  41  39  93 CALM      30.15R FOG
SALEM          LGT RAIN  41  38  89 CALM      30.13R FOG
CORVALLIS      CLOUDY    43  39  87 CALM      30.15R
EUGENE         LGT RAIN  42  40  92 SE3       30.14R FOG
$$

ORZ021-028-011800-
SOUTHWEST OREGON


CITY           SKY/WX    TMP DP  RH WIND       PRES   REMARKS
NORTH BEND     CLOUDY    52  52 100 S5        30.12R
BROOKINGS      CLOUDY    53  47  80 CALM      30.15R
ROSEBURG       LGT RAIN  46  43  89 E3        30.15F
SEXTON SUMMIT  LGT RAIN  45  30  55 SW6       30.14R
MEDFORD        CLOUDY    39  36  89 S6        30.16S WCI  35
$$

ORZ014>016-041-011800-
COLUMBIA GORGE


CITY           SKY/WX    TMP DP  RH WIND       PRES   REMARKS
TROUTDALE      LGT RAIN  40  35  83 E21G28    30.13R WCI  30
THE DALLES     CLOUDY    38  35  89 CALM      30.22S
$$

ORZ029>031-041-044-049-050-061>064-502-503-505>511-011800-
EASTERN OREGON


CITY           SKY/WX    TMP DP  RH WIND       PRES   REMARKS
REDMOND        CLOUDY    31  31 100 CALM      30.15R FOG
BEND           CLOUDY    30  30 100 CALM      30.14R FOG
PRINEVILLE     CLOUDY    32  32 100 VRB6      30.15R FOG     WCI  26
KLAMATH FALLS  PTSUNNY   31  26  82 NW3       30.18R
LAKEVIEW       CLOUDY    30  27  86 SW8       30.20R WCI  23
HERMISTON      CLOUDY    37  33  85 SW3       30.19F
PENDLETON      CLOUDY    34  32  92 CALM      30.15S FOG
JOHN DAY       CLOUDY    35  31  83 E13       30.11S WCI  26
MEACHAM        CLOUDY    32  27  81 CALM      30.07F
LA GRANDE      CLOUDY    34  25  69 N6        30.12R WCI  29
BAKER CITY     CLOUDY    31  29  92 S3        30.14R
BURNS          CLOUDY    32  30  92 CALM      30.14R
ROME             N/A     36  26  67 W3        30.15R
ONTARIO        CLOUDY    34  31  88 CALM      30.22R
$$


USA.gov is the U.S. government's official web portal to all federal, state and local government web resources and services.